Regional Weather Roundup
Issued by NWS Charleston, SC

Current Version | Previous Version | Text Only | Print | Product List | Glossary Off
Versions: 1 2 3 4 5 6 7 8 9 10 11 12 13 14 15 16 17 18 19 20 21 22 23 24 25 26 27 28 29 30 31 32 33 34 35 36 37 38 39 40 41 42 43 44 45 46 47 48 49 50
000 ASUS42 KCHS 251527 RWRCHS Regional Weather Roundup National Weather Service Charleston SC 1100 AM EDT WED APR 25 2018 NOTE: "fair" indicates few or no clouds below 12,000 feet with no significant weather and/or obstructions to visibility. Not all stations are quality controlled. Use data with caution, especially dewpoint observations. SCZ027-030-031-034>040-042>050-251600- ...Southeast South Carolina... CITY SKY/WX TMP DP RH WIND PRES REMARKS N Charleston FAIR 73 56 54 W9 29.82F Waterfront Prk N/A 68 58 70 SW6 29.67F Mount Pleasant FAIR 72 55 56 SW9 29.82S Johns Island FAIR 73 55 53 SW14 29.83S Pinopolis N/A 66 59 77 W6 29.74S Moncks Corner FAIR 70 55 60 SW7 29.82S Summerville FAIR 70 55 60 W10G16 29.84S Beaufort MCAS FAIR 72 58 61 W13 29.85F Beaufort Arpt FAIR 72 55 56 W10G17 29.86R Hilton Head Is SUNNY 70 55 60 SW9 29.87F Walterboro FAIR 70 54 56 W12G17 29.85S Allendale FAIR 70 55 60 W8 29.85R ...Southern Midlands and Pee Dee... CITY SKY/WX TMP DP RH WIND PRES REMARKS Georgetown FAIR 72 55 56 W12G17 29.82R Kingstree FAIR 70 57 64 SW9 29.80F Orangeburg FAIR 69 55 60 W9 29.83R Barnwell NOT AVBL Aiken FAIR 70 54 56 SW9G16 29.87S Manning FAIR 64 52 63 W7 29.82R Columbia FAIR 72 55 55 NW9 29.82S Sumter FAIR 70 56 61 W10 29.79S Florence PTSUNNY 71 58 63 W12 29.79F Myrtle Beach FAIR 71 57 61 W10 29.81S N Myrtle Beach FAIR 72 56 57 SW13 29.79R $$ GAZ063-065-086>088-099>101-113>116-118-119-134>141-150-251600- ...Southeast Georgia... CITY SKY/WX TMP DP RH WIND PRES REMARKS Savannah Arpt FAIR 71 55 56 W12 29.88S Hunter AAF FAIR 72 56 57 W10 29.85F Fort Stewart FAIR 71 54 54 W12 29.87S Statesboro FAIR 71 52 50 W12G22 29.88S Sylvania FAIR 71 60 68 NW8 29.88S Claxton FAIR 71 58 63 SW12G18 29.90S ...CSRA, Central and far Southeast Georgia... CITY SKY/WX TMP DP RH WIND PRES REMARKS Thomson FAIR 69 54 58 N10 29.92S Augusta-Bush FAIR 70 54 56 W13 29.85S Augusta-Daniel FAIR 70 54 56 W7 29.86S Swainsboro FAIR 70 55 60 NW12 29.90S Vidalia FAIR 70 57 64 W6 29.91S Eastman FAIR 70 48 45 W10 29.95S Hazlehurst FAIR 71 55 56 W6 29.91F Alma FAIR 71 56 58 NW7 29.92S Waycross FAIR 73 52 48 W8G17 29.93S Jesup FAIR 72 54 53 W9 29.91S Baxley FAIR 68 54 60 NW9 29.91F Brunswick FAIR 72 55 56 SW12 29.92R Saint Simons FAIR 71 58 63 SW10 29.91R $$ SCZ027-028-034-036>038-045-046-048>050-GAZ119-141-251600- ...Lake and Supplemental Coastal Observations... STATION/POSITION TIME TEMP WIND PRES WAVE SWELL AIR SEA DIR/SP/G HT/PER HT/PER/DIR (UTC) (F) (DEG/KT/KT) (MB) (FT/S) (FT/S/D) Winyah Bay 1445 70 260/ 6 1009.0S Lake Murray 1420 65 260/ 4/ 6 1009.1S ACE Basin NERRS 1445 70 350/ 4 N/A Fort Pulaski 1500 68 66 290/ 11/ 15 1011.7 Sapelo Island 1500 70 290/ 7 1013.0 $$ ANZ835-935-AMZ111-154-330-350-352-354-370-450-454-472-251600- ...C-MAN and Buoy Observations... STATION/POSITION TIME TEMP WIND PRES WAVE SWELL AIR SEA DIR/SP/G HT/PER HT/PER/DIR (UTC) (F) (DEG/KT/KT) (MB) (FT/S) (FT/S/D) Buoy 41004 1510 69 240/ 14/ 17 1010.7 Buoy 41008 1450 64 65 250/ 10/ 12 1012.4R 3/ 9 3/ 70/ 9 Folly Beach CMAN 1500 66 210/ 14/ 16 1010.8S Capers Nearshore 1508 65 65 240/ 14/ 16 1010.0F Fripp Nearshore 1508 65 66 260/ 10/ 14 1010.7S STATION/POSITION TIME TEMP WIND PRES WAVE SWELL AIR SEA DIR/SP/G HT/PER HT/PER/DIR (UTC) (F) (DEG/KT/KT) (MB) (FT/S) (FT/S/D) 5E St. Marys GA 1500 68 N/A 2/ 9 2/ 80/11 Frying Pan Buoy 1510 66 70 240/ 14/ 17 1009.7 Buoy 41025 1510 70 70 240/ 14/ 19 1008.6 Cape Lookout NC 1500 210/ 11/ 15 1008.2F Buoy 41002 1510 73 73 190/ 17/ 21 1010.5 Buoy 41010 1510 73 75 260/ 12/ 17 1014.4 St Augustine FL 1500 72 67 240/ 10/ 12 1014.5R $$

USA.gov is the U.S. government's official web portal to all federal, state and local government web resources and services.